Burnet, TX

5:37 PM CST on February 05, 2016 (GMT -0600)
Burnet Municipal-Craddock

Weather History for KBMQ - October, 2012

Change the Weather History Date:

Thursday, October 11, 2012

  Actual Average Record
Temperature  
Mean Temperature 76 °F -  
Max Temperature 84 °F 76 °F 93 °F (2015)
Min Temperature 69 °F 56 °F 52 °F (2000)
Cooling Degree Days 12    
Growing Degree Days 26 (Base 50)    
Moisture  
Dew Point 69 °F    
Average Humidity 84    
Maximum Humidity 94    
Minimum Humidity 60    
Precipitation  
Precipitation 0.00 in - - ()
Sea Level Pressure  
Sea Level Pressure 30.10 in    
Wind  
Wind Speed 6 mph (SSE)    
Max Wind Speed 13 mph    
Max Gust Speed 21 mph    
Visibility 9 miles    
Events Rain    
Averages and records for this station are not official NWS values.
T = Trace of Precipitation, MM = Missing Value Source: NWS Daily Summary

Daily Weather History Graph

Daily Weather History Graph

Search for Another Location

Airport or City:

Trip Planner

Search our weather history database for the weather conditions in past years. The results will help you decide how hot, cold, wet, or windy it might be!

Date:

Astronomy

Oct. 11, 2012 Rise Set
Actual Time 7:33 AM CDT 7:05 PM CDT
Civil Twilight 7:08 AM CDT 7:29 PM CDT
Nautical Twilight 6:40 AM CDT 7:57 PM CDT
Astronomical Twilight 6:12 AM CDT 8:25 PM CDT
Moon 3:28 AM CDT (10/11) 4:29 PM CDT (10/11)
Length of Visible Light 12h 20m
Length of Day
11h 32m
Waning Crescent, 18% of the Moon is Illuminated
Oct 11
Waning Crescent
Oct 15
New
Oct 21
First Quarter
Oct 29
Full
Nov 6
Last Quarter

Hourly Weather History & Observations

Time (CDT) Temp. Heat Index Dew Point Humidity Pressure Visibility Wind Dir Wind Speed Gust Speed Precip Events Conditions
12:04 AM 73.0 °F - 68.0 °F 84% 30.14 in 10.0 mi South 4.6 mph - N/A   Mostly Cloudy
12:33 AM 73.0 °F - 68.0 °F 84% 30.13 in 10.0 mi South 6.9 mph - N/A   Scattered Clouds
12:43 AM 73.0 °F - 68.0 °F 84% 30.12 in 10.0 mi South 6.9 mph - N/A   Mostly Cloudy
12:53 AM 72.0 °F - 69.1 °F 91% 30.08 in 10.0 mi SSE 4.6 mph - N/A   Mostly Cloudy
1:13 AM 72.0 °F - 69.1 °F 91% 30.11 in 10.0 mi SSE 4.6 mph - N/A   Scattered Clouds
1:53 AM 71.1 °F - 68.0 °F 90% 30.11 in 10.0 mi Variable 3.5 mph - N/A   Clear
2:49 AM 69.8 °F - 68.0 °F 94% 30.10 in 9.0 mi South 4.6 mph - N/A   Scattered Clouds
2:53 AM 70.0 °F - 68.0 °F 93% 30.06 in 9.0 mi South 4.6 mph - N/A   Mostly Cloudy
3:53 AM 71.1 °F - 68.0 °F 90% 30.05 in 10.0 mi South 10.4 mph 20.7 mph N/A   Overcast
4:02 AM 71.1 °F - 68.0 °F 90% 30.10 in 10.0 mi South 8.1 mph - N/A   Overcast
4:42 AM 71.1 °F - 68.0 °F 90% 30.10 in 10.0 mi South 9.2 mph - N/A   Overcast
4:53 AM 71.1 °F - 68.0 °F 90% 30.06 in 10.0 mi South 8.1 mph - N/A   Overcast
5:42 AM 72.0 °F - 68.0 °F 87% 30.11 in 9.0 mi South 5.8 mph - N/A   Overcast
5:53 AM 72.0 °F - 68.0 °F 87% 30.06 in 6.0 mi South 5.8 mph - N/A   Overcast
6:08 AM 71.1 °F - 69.1 °F 93% 30.11 in 8.0 mi SSE 4.6 mph - N/A   Overcast
6:35 AM 71.1 °F - 69.1 °F 93% 30.12 in 8.0 mi SSE 4.6 mph - N/A   Overcast
6:53 AM 71.1 °F - 69.1 °F 93% 30.08 in 9.0 mi SE 5.8 mph - N/A   Overcast
7:19 AM 72.0 °F - 69.1 °F 91% 30.13 in 8.0 mi SSE 5.8 mph - N/A   Overcast
7:53 AM 72.0 °F - 70.0 °F 93% 30.08 in 7.0 mi Variable 4.6 mph - N/A   Overcast
8:51 AM 73.4 °F - 69.8 °F 88% 30.15 in 6.0 mi SSE 5.8 mph - N/A   Overcast
8:53 AM 73.0 °F - 70.0 °F 90% 30.10 in 6.0 mi SSE 5.8 mph - N/A   Overcast
9:53 AM 75.0 °F - 70.0 °F 84% 30.12 in 9.0 mi SSE 4.6 mph - N/A   Overcast
10:44 AM 77.0 °F - 70.0 °F 79% 30.17 in 10.0 mi South 9.2 mph - N/A   Mostly Cloudy
10:53 AM 78.1 °F - 70.0 °F 76% 30.12 in 10.0 mi SSE 8.1 mph - N/A   Mostly Cloudy
11:53 AM 78.1 °F - 70.0 °F 76% 30.13 in 10.0 mi South 6.9 mph - N/A   Mostly Cloudy
12:32 PM 79.0 °F - 69.1 °F 72% 30.16 in 10.0 mi SSE 8.1 mph - N/A   Mostly Cloudy
12:53 PM 79.0 °F - 71.1 °F 77% 30.11 in 10.0 mi SSE 8.1 mph - 0.00 in Rain Light Rain
1:53 PM 82.0 °F 85.5 °F 69.1 °F 65% 30.08 in 10.0 mi South 8.1 mph - 0.00 in   Scattered Clouds
2:53 PM 82.9 °F 85.8 °F 68.0 °F 60% 30.05 in 10.0 mi South 9.2 mph 18.4 mph 0.00 in   Partly Cloudy
3:53 PM 84.0 °F 87.8 °F 69.1 °F 61% 30.04 in 10.0 mi SE 11.5 mph 18.4 mph N/A   Scattered Clouds
5:53 PM 80.1 °F 82.9 °F 69.1 °F 69% 30.04 in 10.0 mi SE 9.2 mph 19.6 mph N/A   Partly Cloudy
6:53 PM 77.0 °F - 70.0 °F 79% 30.05 in 10.0 mi SE 9.2 mph - N/A   Mostly Cloudy
8:35 PM 75.0 °F - 70.0 °F 84% 30.13 in 10.0 mi SSE 6.9 mph - N/A   Mostly Cloudy
8:53 PM 75.0 °F - 70.0 °F 84% 30.09 in 10.0 mi Variable 4.6 mph - N/A   Overcast
9:03 PM 75.0 °F - 70.0 °F 84% 30.14 in 10.0 mi SSE 4.6 mph - N/A   Overcast
9:53 PM 75.0 °F - 70.0 °F 84% 30.11 in 10.0 mi SSE 12.7 mph 20.7 mph N/A   Overcast
10:53 PM 73.9 °F - 69.1 °F 85% 30.11 in 10.0 mi SSE 11.5 mph 17.3 mph N/A   Scattered Clouds
11:53 PM 73.0 °F - 69.1 °F 87% 30.11 in 10.0 mi SSE 8.1 mph - N/A   Mostly Cloudy